Location: Songkhla
(7.2000°N, 100.6000°E)
Time: 14:04:57
(UTC+07:00)

Daily predictions for brighter satellites

Satellite Brightness Start Highest point End
(mag) Time Altitude Azimuth Time Altitude Azimuth Time Altitude Azimuth
Intelsat 5-3 Rocket 4.3 18:30:23 10° SW 18:35:41 54° SSE 18:48:55 10° ENE
Helios 1A 4.2 18:40:36 10° N 18:44:29 47° WNW 18:48:23 10° SSW
ADEOS Rocket 3.8 18:39:57 10° SE 18:44:48 26° ENE 18:49:21 10° NNE
Meteor 2-10 Rocket 3.8 18:42:11 10° S 18:47:21 73° W 18:52:21 10° N
DMSP B5D1-3 4.5 18:42:48 10° NNE 18:47:51 71° ESE 18:52:53 10° S
Cosmos 2251 Rocket 3.9 18:43:21 10° NNW 18:48:36 71° WSW 18:53:53 10° S
NOSS 3-1 (A) 4.0 18:46:07 10° SSE 18:49:30 19° ESE 18:52:50 10° ENE
Cosmos 1908 Rocket 4.0 18:51:47 10° SSE 18:55:46 38° E 18:59:46 10° NNE
Cosmos 2082 Rocket 2.9 18:51:32 10° N 18:56:32 32° ENE 19:01:30 10° SE
Cosmos 1302 Rocket 4.0 18:53:08 10° S 18:58:22 66° ESE 19:03:34 10° NNE
Ariane H10+ 1.7 18:56:02 10° WSW 18:58:50 65° S 19:01:21 12° E
Cosmos 1953 2.8 18:56:50 10° SSE 19:00:17 33° E 19:03:43 10° NNE
Longmarch 3A Rocket 4.1 18:53:00 10° NW 19:00:45 21° N 19:03:52 10° NE
Cosmos 2242 Rocket 3.7 18:56:32 10° N 19:00:56 80° W 19:05:24 10° S
NOAA 6 4.0 18:56:44 10° SSE 19:01:52 77° ENE 19:06:57 10° N
CZ-4B R/B 4.4 19:01:54 12° ESE 19:03:44 16° ENE 19:06:09 10° NE
IGS 5A 3.3 18:59:50 10° SSE 19:03:54 73° E 19:07:57 10° N
DELTA 4 R/B 3.6 19:02:33 10° SW 19:10:50 67° SSE 19:18:24 12° ENE
NOSS 3-1 (C) 3.3 19:08:03 10° SSW 19:12:36 60° WNW 19:17:10 10° NNE
Meteor 2-5 Rocket 3.8 19:07:50 10° N 19:13:43 69° E 19:19:36 10° SSE
Cosmos 1190 Rocket 4.3 19:08:29 10° NNW 19:13:45 74° WSW 19:19:02 10° S
ATLAS 5 CENTAUR R/B 1.6 19:17:02 10° SSW 19:20:40 58° WNW 19:23:57 10° NNE
Intelsat 5-2 Rocket 4.0 19:23:31 10° W 19:26:17 21° SSW 19:27:34 15° S
SOZ 4.3 19:23:53 10° SSW 19:28:48 78° SE 19:30:04 27° NE
ARIANE 3 DEB 2.9 19:26:49 10° WSW 19:28:56 26° S 19:28:56 26° S
Meteor 1-24 Rocket 4.0 19:24:37 10° N 19:30:38 81° W 19:36:34 10° S
Cosmos 1954 Rocket 4.3 19:25:47 10° NNW 19:31:01 70° WSW 19:36:15 10° S
ATLAS 3B R/B 2.5 19:25:37 10° SSW 19:32:05 76° ESE 19:39:00 10° NNE
BlueWalker 3 1.8 19:30:38 10° SW 19:34:25 88° NW 19:37:29 15° NNE
BLOCK DM-SL 4.0 19:29:31 10° W 19:36:29 62° S 19:39:58 27° ESE
ARIANE 5 R/B 0.8 19:35:24 10° W 19:38:26 88° S 19:38:59 55° E
DELTA 2 DEB (DPAF) 3.9 19:37:05 10° NNE 19:41:18 88° ESE 19:45:32 10° SSW
ARIANE DEB (SYLDA) 2.0 19:41:21 10° W 19:45:57 88° S 19:46:49 51° E
Centaur D-1AR AC-39 4.4 19:36:11 10° SW 19:46:21 19° S 19:49:05 16° SSE
Cosmos 2327 Rocket 4.3 19:40:32 10° N 19:46:38 71° E 19:52:41 10° S
Cosmos 2154 Rocket 4.5 19:41:22 10° NNW 19:47:27 60° W 19:53:33 10° S
Cosmos 2098 Rocket 4.0 19:42:10 10° SSE 19:48:19 49° E 19:53:38 10° NNE
ARIANE 5 R/B 3.8 19:47:37 10° WSW 19:48:06 14° SW 19:48:06 14° SW
Cosmos 1992 Rocket 4.1 19:47:15 10° SSW 19:52:25 72° WNW 19:57:35 10° N
ADEOS 3.9 19:47:31 10° S 19:52:40 64° WSW 19:57:49 10° NNW
Cosmos 1850 Rocket 4.3 19:47:55 10° N 19:52:32 43° ENE 19:52:32 43° ENE
CZ-4B DEB 4.1 19:50:44 21° SSE 19:54:28 78° ENE 20:00:00 10° N
Resurs 1-3 3.5 19:55:35 62° ENE 19:55:35 62° ENE 19:59:37 10° N
Cosmos 1674 Rocket 3.8 19:53:30 10° N 19:57:54 67° W 20:00:42 22° S
COSMOS 2406 3.5 19:52:28 10° NNW 19:58:09 67° WSW 20:02:28 18° S
SPOT 1/Viking Rocket 3.9 20:00:23 47° NE 20:00:23 47° NE 20:04:43 10° N
SJ-6B 3.5 20:02:19 45° N 20:02:19 45° N 20:05:05 10° N
SL-8 R/B 4.3 20:03:34 10° NW 20:08:10 50° SW 20:08:49 46° SSW
CZ-4B R/B 3.7 20:15:06 48° NNE 20:15:06 48° NNE 20:19:22 10° N
Delta 7925 Rocket 4.5 20:10:37 10° NW 20:16:05 44° NNE 20:16:21 43° NNE
Atlas Centaur 2 4.0 20:13:36 10° WNW 20:17:03 17° NNW 20:19:17 13° N
CZ-4 R/B 3.3 20:26:43 26° NW 20:26:43 26° NW 20:28:40 10° NNW
Ariane H10+ 4.2 20:27:08 10° W 20:37:58 59° W 20:37:58 59° W
SL-8 Rocket 4.2 20:34:15 10° NNW 20:39:58 64° WNW 20:39:58 64° WNW
Centaur D-1A AC-32 4.5 20:14:27 10° WNW 20:45:53 45° SW 20:47:45 39° SSW
DELTA 4 R/B 3.9 20:49:00 10° W 20:57:07 51° NNW 20:57:14 51° NNW
ARIANE 5 R/B 4.4 20:27:38 10° W 21:01:12 38° SSW 21:01:44 38° SSW
